HAIYANG 2B

导读 | 豆包AI

HAIYANG 2B(海洋二号B星)是中国于2018年10月24日发射的海洋微波遥感卫星。该星在海洋二号A星基础上新增船舶识别与数据收集分系统,集成六大有效载荷,可对海面高度、风场、温度等海洋动力要素精准观测,还能实现全球船舶自动识别、转发浮标测量数据。作为全天候全天时微波卫星,它开启中国海洋动力环境监测网建设新征程,服务海洋开发、防灾减灾与气候变化应对,助力航天强国与海洋强国建设。

基本信息
目录编号:
43655
目录名称:
HAIYANG 2B
国际标识:
2018-081A
轨道中心:
EARTH
卫星名称:
HAIYANG 2B
卫星全名:
--
卫星状态:
在轨 (已飞行2697 天)
发射日期:
2018-10-24 UTC
国别 :
中国 (CN)
星等 :
--
轨道信息
数据来源 国际轨道数据
星历时间: 2026-03-13T23:06:28+0800
8小时前
查看轨道信息
半长轴: 7344.48km
偏心率: 0.000136
轨道倾角: 99.334°
近地点辐角 135.061°
升交点赤经 82.814°
平近点角 225.065°
近地点: 965.344km
远地点: 967.342km
周期: 104.400分钟
每日圈数: 13.793078
详细信息
使用方式:
暂无
2D轨道图
3D轨道图
轨道高度分析图
轨道倾角分析图
轨道综合分析图
查看轨道综合分析图